Wind_Speed
25 25 23 20 16 14 11 11 9 6 4 4 5 5 4 3 2 2 1 1 2 2 2 1 1 2 3 5 6 8 8 9 8 8 7 7 7 8 8 8 9 9 8 6 6 5 6 7 8
25 26 25 23 20 14 12 13 11 7 5 4 4 3 2 2 2 3 3 3 4 4 3 3 2 1 1 3 4 5 6 7 7 7 6 6 6 7 7 7 7 7 6 5 5 6 7 9 10
24 25 26 26 25 20 16 16 13 8 4 3 2 1 4 6 6 6 6 6 7 7 6 5 4 3 1 1 3 4 5 5 6 6 5 6 6 6 6 6 6 6 5 5 6 7 9 10 11
23 24 25 26 25 23 21 19 15 8 5 3 2 4 7 9 9 9 9 9 9 9 9 8 7 4 2 1 1 3 4 4 4 4 4 4 5 5 5 5 5 5 5 5 6 7 8 9 10
21 21 22 23 25 24 23 20 16 10 7 5 4 6 9 10 11 10 10 11 11 11 11 10 9 7 5 3 1 1 2 3 3 4 4 4 4 5 5 6 6 6 6 6 7 7 8 9 10
19 18 19 20 23 26 25 21 17 12 9 8 7 9 10 11 11 11 10 11 11 12 12 11 10 9 7 4 2 1 1 2 3 4 4 5 6 6 7 7 8 7 7 8 8 9 9 10 11
16 16 16 20 25 27 26 21 18 14 12 11 11 10 11 11 11 10 10 10 10 11 11 11 11 10 8 6 5 3 3 3 4 5 6 7 7 8 8 9 9 9 9 10 10 11 11 12 12
14 15 15 20 25 26 23 20 18 16 15 14 14 13 11 11 10 9 8 8 9 10 10 10 10 10 9 8 6 6 5 5 5 6 7 8 8 9 10 11 11 11 11 12 12 12 12 12 11
14 15 15 20 24 24 22 21 20 18 17 16 16 15 13 11 9 7 5 6 6 7 8 9 9 9 9 8 8 7 7 6 7 7 8 9 10 10 11 12 13 13 12 12 12 11 11 10 10
14 14 18 22 24 23 22 23 21 19 17 17 16 16 14 11 8 6 3 3 4 5 6 8 9 9 9 8 8 8 8 8 8 8 8 9 10 11 12 13 13 13 12 12 11 11 10 10 10
15 16 21 22 22 21 22 23 22 20 18 16 17 16 15 12 9 6 2 1 2 5 7 8 10 10 10 10 10 10 10 10 10 10 10 10 11 11 12 13 13 13 13 12 12 11 11 11 11
17 19 21 22 21 21 22 23 23 20 18 18 18 17 15 12 10 7 4 2 3 6 8 11 12 13 13 13 13 14 14 14 14 13 13 13 12 12 13 13 13 13 13 13 13 14 14 13 13
20 22 22 23 22 22 22 23 22 21 20 17 15 14 14 13 11 9 6 5 5 8 10 12 14 15 16 16 16 17 17 17 16 16 16 16 15 15 14 15 15 15 15 15 15 16 16 16 16
24 25 25 24 24 23 23 22 22 22 20 19 15 13 13 13 12 10 9 8 8 9 11 13 15 16 17 18 18 19 20 20 19 19 19 19 19 19 18 18 18 19 18 18 18 19 20 21 21
27 27 26 26 25 25 23 21 22 22 21 20 17 14 14 14 13 12 12 11 11 12 13 15 16 17 18 19 20 21 22 23 23 23 24 24 24 24 24 24 23 24 24 24 24 24 25 27 27
29 29 30 30 29 27 24 22 23 22 21 20 19 17 16 15 15 15 15 15 15 15 16 17 18 19 20 21 21 22 23 25 26 27 27 28 29 30 31 30 30 30 31 31 31 30 30 30 30
31 31 33 34 31 30 27 25 25 22 21 21 21 20 18 17 16 17 18 19 19 19 20 20 21 22 22 23 23 25 26 28 30 31 32 33 34 35 36 36 37 38 37 36 34 32 32 32 31
33 34 37 38 35 32 31 31 28 25 24 23 22 22 21 19 19 21 22 23 23 23 24 24 24 24 25 25 26 28 30 33 35 37 38 38 38 38 40 40 41 41 39 37 33 30 29 27 27
36 36 39 42 39 36 35 34 32 30 28 27 26 25 25 24 23 24 25 26 27 27 28 28 28 28 28 29 30 32 34 37 39 39 40 38 38 39 38 40 40 39 38 35 31 26 23 22 22
38 38 40 43 41 41 41 39 36 35 33 31 31 30 30 29 28 28 28 28 29 31 31 31 31 31 31 32 33 36 38 41 44 45 44 41 38 36 34 34 34 34 33 30 24 21 22 23 25
38 39 41 44 46 45 44 41 40 40 38 36 35 35 34 33 32 32 31 30 31 32 33 33 33 34 34 35 36 38 40 44 45 46 42 38 35 31 30 29 31 30 27 24 21 21 23 25 26
36 38 40 42 45 45 48 43 39 44 43 42 41 40 39 37 36 34 33 31 31 31 33 33 34 35 36 37 38 40 42 45 46 43 40 37 31 28 25 25 26 24 23 22 22 24 26 29 30
34 36 38 41 44 46 48 46 38 44 44 45 45 44 43 40 38 36 34 32 32 32 33 34 35 36 38 39 40 42 43 46 46 44 40 33 27 25 23 23 24 23 23 24 26 28 31 33 36
33 35 36 39 41 44 44 44 38 41 44 44 45 45 43 40 38 35 34 32 32 32 33 35 36 38 40 41 42 43 44 44 44 43 39 33 30 27 24 24 25 26 28 29 31 33 36 38 40
33 34 34 35 38 37 39 40 35 43 42 41 41 41 39 37 34 33 32 32 32 33 34 35 37 39 40 42 42 42 41 41 41 40 39 35 32 29 28 30 31 32 33 34 36 38 40 42 44
31 32 33 27 26 27 35 33 36 39 36 35 35 34 32 30 29 28 27 28 30 31 33 35 36 38 40 40 40 39 39 39 40 40 39 37 35 34 33 34 34 35 36 37 40 42 44 46 49
30 31 30 30 27 23 23 30 36 33 31 30 29 28 26 25 23 22 22 23 25 27 30 32 34 36 38 38 38 38 38 39 40 40 40 39 38 37 36 37 38 38 39 41 43 46 48 51 53
28 28 30 31 28 24 23 25 26 29 28 27 26 25 24 23 22 22 22 23 25 27 29 31 33 35 36 37 38 38 39 39 40 40 40 39 38 38 39 40 42 43 44 45 48 50 52 54 56
25 28 30 29 26 23 20 20 26 27 26 25 24 23 23 24 24 25 26 27 28 30 31 33 34 36 37 37 38 39 40 40 40 40 41 41 41 42 42 43 45 46 48 50 52 53 55 56 58
23 26 28 29 28 27 23 24 26 25 24 23 23 23 24 24 25 27 28 30 31 33 34 35 36 37 38 38 39 40 41 42 42 43 44 45 45 46 45 46 48 50 51 53 54 56 56 57 58
Wind_Direction
214 213 211 210 206 208 209 213 220 235 261 290 297 285 269 265 264 252 266 9 6 6 3 339 280 260 255 254 255 256 258 260 262 264 265 265 264 265 266 265 264 264 264 261 255 254 256 259 263
214 213 213 211 210 207 214 215 220 231 253 278 291 283 203 164 146 119 95 71 54 42 42 48 52 29 258 248 247 249 252 255 258 262 266 266 268 269 269 266 265 263 258 250 248 253 257 260 264
214 215 214 212 212 209 210 211 217 226 237 254 280 151 140 130 120 106 94 81 67 56 50 49 50 51 40 235 231 234 241 249 254 258 261 263 266 267 267 264 262 259 253 248 250 254 257 261 265
215 217 216 214 212 213 212 210 212 215 219 210 159 123 123 118 108 100 95 86 75 63 54 47 44 42 45 59 211 217 225 234 243 248 252 254 254 253 253 253 249 246 247 249 251 254 256 259 262
215 217 218 213 209 211 213 211 209 211 210 184 154 132 117 112 103 99 95 86 76 66 57 49 45 44 47 58 91 194 217 225 231 232 231 231 234 237 241 243 245 249 254 257 257 257 260 264 267
217 218 217 208 204 210 212 209 205 205 198 180 159 139 121 113 105 100 94 87 78 70 60 53 48 44 45 49 49 22 285 258 247 239 235 233 237 243 248 253 255 256 259 260 262 266 270 273 275
218 221 215 206 205 208 211 206 199 198 188 179 166 150 133 120 111 103 96 88 79 72 64 56 52 48 43 37 25 1 326 298 282 267 256 251 249 251 256 261 265 267 270 273 277 279 280 280 282
225 227 218 210 208 208 209 199 193 190 185 181 171 160 148 133 122 110 99 86 77 71 64 56 51 47 44 35 22 5 346 326 304 287 277 271 267 265 266 268 272 276 281 284 286 286 284 285 287
231 231 221 212 209 208 203 194 190 189 186 183 178 170 165 151 136 121 102 85 71 59 50 42 40 38 33 27 20 8 353 337 320 303 290 285 282 280 280 280 281 284 287 290 290 288 286 284 283
233 230 218 215 210 206 198 194 192 190 188 188 185 180 175 166 155 137 111 83 52 31 23 17 15 15 13 9 3 355 348 339 326 312 300 293 290 288 287 288 289 288 288 287 285 281 278 277 278
233 225 222 219 211 203 195 192 193 192 191 192 191 189 187 181 175 165 152 58 5 356 351 349 348 349 348 348 347 343 338 333 327 317 306 300 296 292 290 289 289 288 285 281 278 275 274 276 278
231 227 226 223 211 202 197 193 193 194 194 198 200 203 202 199 194 192 199 259 314 328 333 332 333 334 333 333 334 335 333 329 326 320 311 303 297 291 288 285 284 281 279 275 271 269 270 272 275
226 227 225 222 213 205 200 198 198 200 206 209 213 216 220 220 213 213 226 258 290 310 318 322 324 327 328 329 329 329 327 323 321 315 310 305 298 289 283 280 278 276 274 271 268 265 265 267 268
223 224 224 221 215 211 207 205 206 210 216 219 221 226 233 233 233 234 243 259 277 294 306 314 319 324 328 331 331 330 326 322 316 310 304 298 293 285 278 273 272 271 270 269 267 266 265 265 264
224 225 225 224 220 217 214 214 216 218 223 228 233 237 243 246 246 249 254 265 275 283 295 303 310 317 323 327 330 330 327 320 314 307 299 293 288 282 275 270 267 267 267 268 268 268 266 265 264
224 225 224 223 224 224 221 222 225 224 228 233 236 240 250 257 255 255 262 270 277 282 289 295 301 308 314 319 323 324 321 316 310 303 296 289 282 276 271 266 264 264 264 265 267 268 269 268 269
221 223 223 225 226 228 226 224 233 231 234 237 238 241 250 259 264 264 267 271 275 280 285 289 295 300 305 310 315 316 313 311 305 299 293 288 281 275 269 265 262 263 263 265 269 272 276 276 274
219 220 223 226 227 227 230 232 239 239 240 243 244 248 253 261 266 266 268 272 277 281 284 287 291 294 298 302 307 308 307 303 299 297 293 288 282 276 271 266 265 265 266 268 271 276 279 279 279
218 218 221 225 230 230 232 235 240 243 245 247 249 252 256 261 265 268 270 273 278 281 283 285 287 289 292 295 298 299 299 297 295 295 293 290 284 280 276 273 270 268 267 270 269 275 282 289 292
220 218 220 226 232 233 236 238 241 246 248 249 251 254 257 260 265 269 272 274 275 277 279 279 282 285 286 288 291 294 296 295 296 294 295 291 287 283 278 274 272 272 272 269 275 287 295 295 296
224 221 221 224 229 234 239 243 247 249 250 252 254 257 260 262 265 269 271 272 272 274 275 275 278 280 282 286 290 292 294 294 296 298 297 299 297 287 278 275 273 274 274 280 289 298 301 303 303
226 225 224 225 229 232 238 238 246 249 251 255 257 260 263 265 267 269 270 269 268 269 269 270 274 278 281 285 288 291 292 295 297 300 302 307 307 294 285 278 274 278 285 293 299 301 303 305 305
226 226 226 227 229 232 239 238 239 254 254 254 258 261 265 267 269 269 268 266 264 264 265 267 272 276 279 283 285 289 291 294 298 303 310 315 314 305 294 286 285 289 300 304 304 303 303 303 304
225 226 227 228 231 235 238 241 239 249 253 255 258 261 264 266 268 267 265 263 261 262 262 265 268 272 276 280 283 287 290 294 299 306 311 315 313 308 300 298 298 300 303 304 303 302 301 301 302
225 225 226 229 233 237 239 241 237 245 251 254 256 259 262 265 266 265 263 261 260 259 259 261 265 270 274 278 282 285 288 292 298 304 308 311 310 306 301 301 302 302 302 301 300 299 298 299 300
227 227 224 225 236 238 243 241 240 246 249 251 255 258 261 263 263 261 259 257 256 256 257 259 263 268 272 276 279 282 286 290 296 301 305 307 305 303 299 299 300 300 298 297 296 296 297 298 298
227 227 226 227 225 226 238 242 243 246 248 251 256 259 261 261 259 257 255 253 252 253 255 258 261 265 269 273 277 282 286 291 295 299 303 303 302 299 297 297 297 297 296 295 295 296 296 296 297
228 227 225 226 227 232 236 248 251 248 249 254 258 259 258 256 252 249 250 251 251 253 255 257 260 264 268 272 277 282 285 291 295 299 301 301 300 297 295 295 296 296 295 295 295 295 295 296 297
233 230 229 228 227 229 234 242 246 250 252 254 257 256 255 253 249 249 250 251 253 254 257 259 261 264 268 272 277 282 286 292 296 298 300 299 299 298 297 296 296 295 294 294 294 295 295 296 297
230 228 228 228 231 233 228 241 248 251 251 252 253 255 256 255 254 254 254 255 256 258 260 261 263 266 270 274 279 284 288 293 295 297 299 299 298 298 297 296 295 294 293 293 294 294 295 296 297
Height
5891 5894 5897 5900 5904 5906 5908 5909 5909 5909 5909 5908 5908 5907 5906 5906 5906 5908 5905 5903 5902 5901 5900 5900 5899 5899 5899 5899 5899 5899 5899 5900 5900 5900 5901 5901 5901 5901 5901 5901 5901 5901 5902 5902 5903 5903 5903 5903 5902
5889 5891 5895 5898 5901 5904 5907 5907 5907 5907 5907 5907 5906 5906 5905 5904 5904 5904 5903 5902 5902 5901 5900 5899 5898 5898 5897 5897 5897 5897 5898 5898 5898 5898 5898 5898 5899 5899 5899 5898 5899 5899 5900 5901 5901 5901 5901 5900 5900
5885 5888 5892 5895 5897 5900 5903 5904 5905 5906 5906 5905 5905 5904 5904 5904 5903 5903 5902 5902 5901 5900 5899 5898 5897 5897 5896 5896 5896 5896 5896 5896 5896 5896 5896 5896 5896 5896 5896 5896 5897 5897 5898 5899 5899 5899 5898 5898 5898
5882 5885 5889 5892 5894 5896 5898 5900 5902 5904 5904 5904 5904 5904 5903 5903 5902 5902 5902 5901 5901 5900 5899 5898 5897 5896 5896 5895 5895 5895 5895 5895 5895 5895 5894 5894 5894 5894 5894 5894 5894 5895 5896 5896 5896 5896 5896 5896 5895
5879 5882 5885 5887 5890 5893 5894 5897 5900 5902 5903 5903 5903 5903 5902 5902 5901 5901 5901 5900 5900 5899 5898 5898 5897 5896 5895 5895 5894 5894 5894 5894 5893 5893 5893 5892 5892 5892 5892 5892 5892 5893 5893 5894 5894 5894 5894 5893 5893
5876 5879 5881 5884 5887 5889 5890 5894 5897 5900 5901 5902 5902 5902 5902 5901 5901 5901 5901 5900 5900 5899 5898 5898 5897 5896 5895 5895 5894 5894 5893 5893 5892 5892 5891 5891 5891 5891 5891 5890 5891 5891 5891 5891 5891 5891 5891 5891 5891
5873 5875 5877 5880 5882 5884 5887 5891 5895 5898 5900 5901 5901 5901 5901 5900 5900 5901 5900 5900 5899 5899 5899 5898 5897 5896 5895 5895 5894 5894 5893 5893 5892 5891 5891 5890 5890 5889 5889 5889 5889 5889 5889 5889 5889 5889 5889 5888 5888
5869 5872 5873 5876 5878 5881 5885 5889 5893 5895 5898 5899 5900 5901 5901 5900 5900 5900 5900 5900 5900 5899 5899 5898 5897 5896 5895 5895 5894 5894 5893 5892 5892 5891 5890 5889 5888 5887 5887 5886 5887 5887 5887 5886 5886 5886 5885 5885 5885
5866 5869 5870 5872 5874 5878 5882 5886 5890 5894 5896 5897 5898 5899 5899 5899 5899 5900 5900 5900 5899 5899 5899 5898 5897 5896 5896 5895 5894 5893 5893 5892 5891 5889 5888 5887 5887 5886 5885 5884 5884 5885 5884 5884 5883 5883 5882 5882 5881
5863 5865 5867 5868 5871 5874 5879 5884 5888 5891 5894 5896 5897 5898 5898 5898 5898 5899 5899 5899 5899 5899 5898 5898 5897 5896 5895 5894 5893 5893 5891 5890 5889 5888 5887 5886 5885 5884 5883 5882 5882 5881 5881 5880 5880 5879 5879 5878 5878
5860 5862 5862 5864 5867 5871 5876 5881 5885 5889 5892 5895 5896 5896 5897 5897 5897 5897 5898 5898 5898 5898 5897 5897 5896 5895 5894 5893 5892 5891 5890 5889 5887 5886 5885 5884 5883 5881 5880 5879 5878 5878 5878 5877 5876 5876 5875 5875 5874
5857 5858 5859 5862 5865 5869 5874 5879 5883 5887 5890 5892 5893 5894 5895 5895 5896 5896 5896 5896 5896 5896 5896 5895 5894 5893 5892 5891 5890 5889 5888 5887 5885 5884 5883 5881 5880 5878 5877 5876 5875 5875 5874 5874 5873 5873 5872 5871 5871
5853 5854 5856 5859 5863 5867 5872 5877 5881 5884 5887 5889 5892 5893 5894 5894 5895 5895 5895 5895 5895 5895 5894 5893 5892 5891 5890 5889 5888 5887 5885 5884 5882 5881 5879 5878 5876 5875 5874 5872 5872 5871 5871 5870 5870 5869 5869 5868 5867
5850 5851 5853 5856 5860 5864 5870 5875 5879 5881 5884 5887 5889 5891 5892 5893 5893 5894 5894 5893 5893 5893 5892 5891 5890 5889 5888 5886 5885 5884 5882 5880 5879 5877 5875 5874 5872 5871 5870 5869 5868 5867 5866 5866 5866 5866 5865 5864 5863
5846 5848 5851 5854 5857 5862 5867 5872 5876 5878 5882 5884 5886 5888 5890 5891 5891 5892 5892 5892 5891 5891 5890 5889 5888 5886 5885 5884 5882 5880 5878 5877 5875 5873 5871 5870 5868 5866 5865 5864 5863 5861 5861 5861 5860 5860 5860 5859 5858
5842 5845 5848 5851 5854 5859 5866 5870 5872 5875 5878 5881 5883 5885 5886 5887 5888 5889 5889 5889 5889 5888 5887 5886 5885 5884 5882 5881 5879 5877 5875 5873 5871 5869 5867 5865 5862 5860 5858 5857 5856 5855 5853 5853 5853 5853 5853 5852 5851
5838 5842 5845 5848 5851 5855 5861 5866 5867 5871 5874 5877 5879 5881 5883 5884 5885 5886 5886 5886 5885 5885 5884 5883 5882 5880 5879 5877 5875 5873 5871 5869 5867 5864 5862 5859 5856 5853 5850 5849 5847 5846 5845 5845 5845 5845 5845 5844 5843
5834 5837 5840 5843 5846 5851 5856 5860 5862 5866 5869 5872 5875 5877 5879 5880 5881 5881 5881 5881 5881 5881 5880 5879 5878 5876 5874 5872 5870 5868 5866 5863 5860 5857 5855 5851 5848 5845 5842 5840 5838 5837 5837 5837 5838 5838 5837 5836 5835
5827 5831 5835 5838 5840 5847 5850 5854 5857 5860 5864 5867 5869 5872 5874 5875 5876 5876 5877 5878 5877 5877 5876 5875 5874 5872 5870 5867 5865 5863 5860 5856 5853 5849 5847 5843 5840 5836 5834 5832 5831 5830 5830 5830 5830 5830 5829 5828 5828
5821 5826 5830 5833 5836 5841 5844 5848 5852 5854 5858 5861 5863 5865 5867 5869 5871 5871 5872 5873 5873 5872 5871 5871 5869 5867 5865 5862 5859 5857 5854 5850 5846 5842 5837 5835 5832 5829 5827 5825 5824 5823 5823 5823 5823 5822 5822 5822 5821
5815 5820 5825 5828 5831 5835 5838 5843 5847 5849 5852 5854 5857 5858 5860 5862 5864 5865 5866 5867 5866 5866 5866 5865 5864 5861 5859 5856 5854 5852 5848 5843 5838 5835 5831 5827 5824 5822 5821 5820 5818 5816 5816 5816 5816 5816 5816 5815 5814
5809 5814 5819 5822 5826 5830 5832 5839 5842 5840 5844 5847 5849 5850 5852 5855 5857 5858 5859 5860 5860 5860 5859 5859 5858 5856 5854 5851 5849 5846 5842 5838 5834 5829 5826 5822 5818 5816 5815 5814 5812 5811 5810 5810 5810 5810 5809 5808 5806
5803 5808 5813 5816 5819 5822 5824 5832 5838 5832 5836 5838 5840 5842 5844 5846 5848 5850 5850 5851 5852 5852 5852 5852 5851 5850 5848 5845 5843 5840 5837 5833 5829 5824 5821 5817 5814 5812 5810 5809 5807 5806 5805 5804 5804 5803 5801 5799 5797
5796 5801 5806 5809 5813 5816 5819 5824 5831 5828 5827 5829 5832 5833 5835 5837 5839 5840 5842 5843 5844 5845 5845 5845 5844 5843 5841 5839 5836 5834 5831 5828 5824 5820 5816 5812 5810 5808 5806 5805 5803 5801 5800 5798 5797 5795 5793 5790 5786
5791 5796 5801 5804 5807 5811 5812 5816 5822 5818 5820 5822 5824 5825 5827 5829 5831 5832 5833 5834 5836 5836 5837 5837 5836 5835 5834 5832 5829 5827 5824 5821 5818 5814 5811 5808 5806 5804 5802 5799 5797 5795 5793 5791 5788 5786 5783 5779 5776
5786 5791 5796 5801 5805 5807 5805 5810 5811 5812 5814 5815 5817 5818 5819 5821 5822 5824 5825 5826 5827 5828 5828 5829 5828 5827 5826 5824 5821 5819 5816 5814 5810 5807 5804 5802 5800 5798 5795 5792 5790 5787 5785 5782 5779 5776 5772 5769 5765
5780 5784 5789 5793 5796 5801 5803 5801 5802 5804 5807 5809 5810 5811 5812 5814 5815 5816 5817 5818 5819 5819 5820 5820 5820 5819 5817 5815 5813 5810 5808 5806 5803 5799 5796 5794 5791 5789 5786 5784 5781 5778 5775 5772 5768 5765 5761 5756 5752
5775 5778 5782 5785 5790 5794 5798 5797 5798 5798 5800 5802 5803 5805 5806 5807 5808 5809 5810 5811 5812 5812 5812 5812 5812 5810 5809 5807 5805 5802 5800 5797 5794 5790 5787 5785 5782 5780 5777 5774 5771 5768 5764 5761 5757 5752 5748 5743 5738
5770 5773 5776 5780 5784 5789 5793 5796 5790 5792 5794 5796 5797 5798 5800 5801 5802 5803 5803 5804 5804 5805 5804 5804 5803 5802 5800 5798 5796 5794 5791 5788 5785 5781 5778 5775 5772 5769 5766 5763 5760 5756 5753 5749 5744 5740 5735 5729 5724
5765 5768 5771 5775 5777 5780 5785 5789 5785 5786 5788 5790 5791 5792 5793 5794 5795 5795 5796 5796 5796 5796 5796 5795 5794 5793 5791 5789 5787 5784 5781 5778 5775 5772 5769 5765 5762 5758 5755 5751 5747 5743 5739 5735 5731 5726 5721 5715 5710